Merrill, WI

1:04 PM CDT on September 21, 2017 (GMT -0500)
Merrill Municipal

Weather History for KRRL - February, 2014

Change the Weather History Date:

Sunday, February 2, 2014

  Actual Average Record
Temperature  
Mean Temperature -3 °F -  
Max Temperature 12 °F 23 °F 46 °F (1935)
Min Temperature -18 °F -1 °F -38 °F (1971)
Degree Days  
Heating Degree Days 68    
Moisture  
Dew Point -10 °F    
Average Humidity 73    
Maximum Humidity 85    
Minimum Humidity 48    
Precipitation  
Precipitation 0.00 in - - ()
Sea Level Pressure  
Sea Level Pressure 30.15 in    
Wind  
Wind Speed 2 mph (West)    
Max Wind Speed 12 mph    
Max Gust Speed 16 mph    
Visibility 10 miles    
Events Snow    
Averages and records for this station are not official NWS values.
T = Trace of Precipitation, MM = Missing Value Source: NWS Daily Summary

Daily Weather History Graph

Daily Weather History Graph

Search for Another Location

Airport or City:

Trip Planner

Search our weather history database for the weather conditions in past years. The results will help you decide how hot, cold, wet, or windy it might be!

Date:

Astronomy

Feb. 02, 2014 Rise Set
Actual Time 7:17 AM CST 5:07 PM CST
Civil Twilight 6:46 AM CST 5:39 PM CST
Nautical Twilight 6:11 AM CST 6:14 PM CST
Astronomical Twilight 5:36 AM CST 6:48 PM CST
Moon 8:33 AM CST (2/2) 9:04 PM CST (2/2)
Length of Visible Light 10h 52m
Length of Day
9h 49m
Waxing Crescent, 11% of the Moon is Illuminated
Feb 2
Waxing Crescent
Feb 6
First Quarter
Feb 14
Full
Feb 22
Last Quarter
Mar 1
New

Hourly Weather History & Observations

Time (CST) Temp. Windchill Dew Point Humidity Pressure Visibility Wind Dir Wind Speed Gust Speed Precip Events Conditions
12:15 AM -10.3 °F - -15.0 °F 80% 30.05 in 10.0 mi Calm Calm - N/A   Clear
12:35 AM -9.2 °F - -13.9 °F 80% 30.05 in 7.0 mi Calm Calm - N/A   Clear
12:55 AM -9.6 °F - -14.1 °F 81% 30.06 in 7.0 mi Calm Calm - N/A   Mostly Cloudy
1:15 AM -10.5 °F - -15.0 °F 80% 30.06 in 7.0 mi Calm Calm - N/A Snow Light Snow
1:35 AM -11.0 °F - -16.1 °F 78% 30.05 in 10.0 mi Calm Calm - N/A   Mostly Cloudy
1:55 AM -12.3 °F - -17.0 °F 80% 30.06 in 7.0 mi Calm Calm - N/A Snow Light Snow
2:15 AM -13.4 °F - -18.4 °F 78% 30.07 in 10.0 mi Calm Calm - N/A   Clear
2:35 AM -12.5 °F - -17.3 °F 79% 30.07 in 10.0 mi Calm Calm - N/A   Clear
2:55 AM -12.1 °F - -16.8 °F 80% 30.07 in 10.0 mi Calm Calm - N/A   Clear
3:15 AM -9.6 °F - -13.9 °F 81% 30.07 in 10.0 mi Calm Calm - N/A   Clear
3:35 AM -7.4 °F - -11.2 °F 84% 30.07 in 10.0 mi Calm Calm - N/A   Clear
3:55 AM -9.2 °F - -14.1 °F 79% 30.07 in 10.0 mi Calm Calm - N/A   Clear
4:15 AM -6.7 °F - -10.7 °F 83% 30.07 in 10.0 mi Calm Calm - N/A   Clear
4:35 AM -3.1 °F - -6.7 °F 85% 30.08 in 10.0 mi Calm Calm - N/A   Clear
4:55 AM -3.6 °F -14.1 °F -7.6 °F 83% 30.09 in 10.0 mi NW 4.6 mph - N/A   Clear
5:15 AM -3.5 °F -11.8 °F -7.4 °F 83% 30.09 in 10.0 mi NW 3.5 mph - N/A   Clear
5:35 AM -6.0 °F -14.7 °F -10.1 °F 82% 30.10 in 10.0 mi WNW 3.5 mph - N/A   Clear
5:55 AM -4.5 °F - -8.3 °F 84% 30.10 in 10.0 mi Calm Calm - N/A   Clear
6:15 AM -5.1 °F -13.6 °F -9.2 °F 82% 30.11 in 10.0 mi WNW 3.5 mph - N/A   Clear
6:35 AM -5.8 °F -14.5 °F -9.8 °F 83% 30.12 in 10.0 mi WNW 3.5 mph - N/A   Clear
6:55 AM -11.9 °F - -17.0 °F 78% 30.13 in 10.0 mi Calm Calm - N/A   Clear
7:15 AM -13.0 °F - -17.7 °F 80% 30.14 in 10.0 mi Calm Calm - N/A   Clear
7:35 AM -13.4 °F - -18.2 °F 79% 30.15 in 10.0 mi Calm Calm - N/A   Clear
7:55 AM -10.3 °F - -14.8 °F 81% 30.16 in 10.0 mi Calm Calm - N/A   Clear
8:15 AM -6.0 °F - -10.5 °F 81% 30.16 in 10.0 mi Calm Calm - N/A   Clear
8:35 AM -7.6 °F -16.5 °F -12.5 °F 79% 30.17 in 10.0 mi West 3.5 mph - N/A   Clear
8:55 AM -5.1 °F -13.6 °F -9.8 °F 80% 30.17 in 10.0 mi WNW 3.5 mph - N/A   Clear
9:15 AM -2.6 °F -12.9 °F -7.2 °F 80% 30.17 in 10.0 mi NW 4.6 mph - N/A   Clear
9:35 AM -0.9 °F -8.9 °F -5.6 °F 81% 30.17 in 10.0 mi WNW 3.5 mph - N/A   Clear
9:55 AM 0.3 °F - -4.4 °F 81% 30.18 in 10.0 mi Calm Calm - N/A   Clear
10:15 AM 1.2 °F -6.4 °F -3.8 °F 79% 30.19 in 10.0 mi West 3.5 mph - N/A   Clear
10:35 AM 2.3 °F - -2.7 °F 79% 30.19 in 10.0 mi Calm Calm - N/A   Clear
10:55 AM 3.7 °F -7.1 °F -2.2 °F 76% 30.19 in 10.0 mi WNW 5.8 mph - N/A   Clear
11:15 AM 5.0 °F -6.9 °F -3.6 °F 68% 30.19 in 10.0 mi WNW 6.9 mph - N/A   Clear
11:35 AM 6.6 °F -5.0 °F -4.9 °F 59% 30.19 in 10.0 mi WNW 6.9 mph - N/A   Clear
11:55 AM 7.7 °F -0.9 °F -4.9 °F 56% 30.17 in 10.0 mi WNW 4.6 mph - N/A   Clear
12:15 PM 8.4 °F 1.8 °F -4.9 °F 55% 30.16 in 10.0 mi WNW 3.5 mph - N/A   Clear
12:35 PM 9.5 °F 3.0 °F -4.4 °F 54% 30.16 in 10.0 mi WSW 3.5 mph - N/A   Clear
12:55 PM 10.0 °F 3.6 °F -4.0 °F 53% 30.14 in 10.0 mi WSW 3.5 mph - N/A   Clear
1:15 PM 10.4 °F 2.2 °F -4.0 °F 52% 30.13 in 10.0 mi WSW 4.6 mph - N/A   Clear
1:35 PM 11.3 °F 3.3 °F -4.0 °F 50% 30.15 in 10.0 mi SW 4.6 mph - N/A   Clear
1:55 PM 12.0 °F 1.5 °F -4.2 °F 48% 30.15 in 10.0 mi SW 6.9 mph - N/A   Clear
2:15 PM 12.2 °F 0.7 °F -4.0 °F 48% 30.14 in 10.0 mi SW 8.1 mph - N/A   Clear
2:35 PM 12.2 °F 0.7 °F -3.5 °F 50% 30.15 in 10.0 mi SW 8.1 mph - N/A   Clear
2:55 PM 11.3 °F -2.9 °F -3.1 °F 52% 30.16 in 10.0 mi SSW 11.5 mph - N/A   Clear
3:15 PM 10.4 °F -4.1 °F -3.5 °F 54% 30.16 in 10.0 mi SW 11.5 mph - N/A   Clear
3:35 PM 9.5 °F -4.4 °F -4.0 °F 54% 30.17 in 10.0 mi SW 10.4 mph - N/A   Clear
3:55 PM 8.6 °F -4.7 °F -4.2 °F 56% 30.18 in 10.0 mi SW 9.2 mph - N/A   Clear
4:15 PM 8.2 °F -5.1 °F -4.4 °F 57% 30.19 in 10.0 mi SW 9.2 mph - N/A   Clear
4:35 PM 6.8 °F -7.8 °F -5.3 °F 58% 30.19 in 10.0 mi WSW 10.4 mph 16.1 mph N/A   Clear
4:55 PM 5.2 °F -6.7 °F -6.2 °F 60% 30.19 in 10.0 mi WSW 6.9 mph - N/A   Clear
5:15 PM 3.2 °F -7.8 °F -6.9 °F 63% 30.19 in 10.0 mi SW 5.8 mph - N/A   Clear
5:35 PM 2.7 °F -8.4 °F -7.1 °F 64% 30.20 in 10.0 mi SW 5.8 mph - N/A   Clear
5:55 PM 1.4 °F -6.2 °F -7.6 °F 66% 30.19 in 10.0 mi SW 3.5 mph - N/A   Clear
6:15 PM -0.0 °F - -8.1 °F 69% 30.19 in 10.0 mi Calm Calm - N/A   Clear
6:35 PM -0.9 °F -8.9 °F -8.3 °F 71% 30.19 in 10.0 mi West 3.5 mph - N/A   Clear
6:55 PM -2.0 °F - -8.1 °F 75% 30.19 in 10.0 mi Calm Calm - N/A   Clear
7:15 PM -5.6 °F -14.3 °F -11.0 °F 77% 30.19 in 10.0 mi West 3.5 mph - N/A   Clear
7:35 PM -6.7 °F -15.5 °F -12.5 °F 76% 30.18 in 10.0 mi WNW 3.5 mph - N/A   Clear
7:55 PM -1.5 °F -11.6 °F -8.7 °F 71% 30.18 in 10.0 mi WNW 4.6 mph - N/A   Clear
8:15 PM -4.9 °F - -11.7 °F 72% 30.17 in 10.0 mi Calm Calm - N/A   Clear
8:35 PM -7.6 °F - -13.2 °F 77% 30.17 in 10.0 mi Calm Calm - N/A   Clear
8:55 PM -9.4 °F - -14.4 °F 78% 30.16 in 10.0 mi Calm Calm - N/A   Clear
9:15 PM -7.8 °F - -11.6 °F 84% 30.17 in 10.0 mi Calm Calm - N/A   Clear
9:35 PM -14.4 °F - -19.3 °F 79% 30.16 in 10.0 mi Calm Calm - N/A   Clear
9:55 PM -12.8 °F - -16.8 °F 82% 30.17 in 10.0 mi Calm Calm - N/A   Clear
10:15 PM -13.4 °F - -17.0 °F 84% 30.17 in 10.0 mi Calm Calm - N/A   Clear
10:35 PM -14.4 °F - -18.4 °F 82% 30.18 in 10.0 mi Calm Calm - N/A   Clear
10:55 PM -15.0 °F - -19.3 °F 81% 30.19 in 10.0 mi Calm Calm - N/A   Clear
11:15 PM -15.7 °F - -20.2 °F 80% 30.19 in 10.0 mi Calm Calm - N/A   Clear
11:35 PM -18.9 °F - -23.6 °F 79% 30.20 in 10.0 mi Calm Calm - N/A   Clear
11:55 PM -18.6 °F - -23.4 °F 78% 30.20 in 10.0 mi Calm Calm - N/A   Clear